[Date Prev][Date Next][Thread Prev][Thread Next] - [Date Index][Thread Index][Author Index]
2 Line ISS Keps 2-18
- Subject: [sarex] 2 Line ISS Keps 2-18
- From: "Dave Larsen PhD" <doc@xxxxxxxxxxx>
- Date: Wed, 18 Feb 2004 01:41:12 -0800
ISS
1 25544U 98067A 04049.33879528 .00016383 00000-0 15426-3 0 2199
2 25544 51.6285 215.9380 0006786 178.4279 242.2397 15.67230761299515
----
Via the sarex mailing list at AMSAT.ORG courtesy of AMSAT-NA.
To unsubscribe, send "unsubscribe sarex" to Majordomo@amsat.org
AMSAT Home